TimeMST,TemperatureF,Dew PointF,Humidity,Sea Level PressureIn,VisibilityMPH,Wind Direction,Wind SpeedMPH,Gust SpeedMPH,PrecipitationIn,Events,Conditions,WindDirDegrees,DateUTC
12:01 AM,37.4,37.4,100,30.01,0.2,Calm,Calm,-,N/A,Fog,Fog,0,2012-12-07 07:01:00
12:10 AM,37.4,37.4,100,30.01,1.0,Calm,Calm,-,N/A,,Overcast,0,2012-12-07 07:10:00
12:15 AM,37.4,37.4,100,30.01,3.0,Calm,Calm,-,N/A,,Overcast,0,2012-12-07 07:15:00
12:39 AM,37.4,37.4,100,30.01,2.5,Calm,Calm,-,N/A,,Mostly Cloudy,0,2012-12-07 07:39:00
12:46 AM,37.4,37.4,100,30.01,3.0,Calm,Calm,-,N/A,,Mostly Cloudy,0,2012-12-07 07:46:00
12:53 AM,37.9,37.0,97,30.00,3.0,Calm,Calm,-,N/A,,Mostly Cloudy,0,2012-12-07 07:53:00
1:08 AM,37.4,37.4,100,30.02,1.8,Calm,Calm,-,N/A,,Mostly Cloudy,0,2012-12-07 08:08:00
1:14 AM,37.4,37.4,100,30.02,0.5,Calm,Calm,-,N/A,Fog,Fog,0,2012-12-07 08:14:00
1:36 AM,35.6,35.6,100,30.03,1.0,NNW,4.6,-,N/A,,Mostly Cloudy,340,2012-12-07 08:36:00
1:46 AM,35.6,35.6,100,30.03,2.5,NW,4.6,-,N/A,,Mostly Cloudy,310,2012-12-07 08:46:00
1:53 AM,36.0,35.1,97,30.03,3.0,NW,4.6,-,N/A,,Mostly Cloudy,310,2012-12-07 08:53:00
2:53 AM,35.1,34.0,96,30.04,9.0,Calm,Calm,-,N/A,,Clear,0,2012-12-07 09:53:00
3:53 AM,34.0,30.9,89,30.04,10.0,SSE,3.5,-,N/A,,Clear,160,2012-12-07 10:53:00
4:53 AM,33.1,28.0,82,30.05,10.0,SSE,3.5,-,N/A,,Clear,160,2012-12-07 11:53:00
5:53 AM,32.0,28.0,85,30.06,10.0,SSW,4.6,-,N/A,,Clear,200,2012-12-07 12:53:00
6:53 AM,28.9,26.1,89,30.07,10.0,WSW,3.5,-,N/A,,Clear,240,2012-12-07 13:53:00
7:53 AM,30.9,28.0,89,30.09,10.0,Calm,Calm,-,N/A,,Clear,0,2012-12-07 14:53:00
8:53 AM,32.0,30.0,92,30.10,10.0,Calm,Calm,-,N/A,,Clear,0,2012-12-07 15:53:00
9:53 AM,37.0,28.9,73,30.11,10.0,Calm,Calm,-,N/A,,Clear,0,2012-12-07 16:53:00
10:53 AM,39.0,28.9,67,30.11,10.0,Calm,Calm,-,N/A,,Clear,0,2012-12-07 17:53:00
11:53 AM,42.1,30.0,62,30.08,10.0,Variable,6.9,-,N/A,,Partly Cloudy,0,2012-12-07 18:53:00
12:53 PM,42.1,28.0,58,30.06,10.0,Variable,4.6,-,N/A,,Mostly Cloudy,0,2012-12-07 19:53:00
1:53 PM,42.1,21.9,45,30.05,10.0,WSW,6.9,-,N/A,,Clear,240,2012-12-07 20:53:00
2:53 PM,42.1,23.0,47,30.04,10.0,WSW,8.1,-,N/A,,Clear,240,2012-12-07 21:53:00
3:53 PM,39.9,21.0,47,30.05,10.0,WSW,6.9,-,N/A,,Clear,240,2012-12-07 22:53:00
4:53 PM,37.0,23.0,57,30.05,10.0,South,5.8,-,N/A,,Clear,180,2012-12-07 23:53:00
6:53 PM,35.1,24.1,64,30.03,10.0,SSE,5.8,-,N/A,,Mostly Cloudy,160,2012-12-08 01:53:00
7:53 PM,37.0,21.9,54,30.00,10.0,SSE,5.8,-,N/A,,Mostly Cloudy,160,2012-12-08 02:53:00
8:53 PM,36.0,23.0,59,29.99,10.0,SW,4.6,-,N/A,,Overcast,220,2012-12-08 03:53:00
9:53 PM,37.9,23.0,55,29.96,10.0,South,10.4,-,N/A,,Overcast,180,2012-12-08 04:53:00
10:53 PM,39.0,21.9,50,29.93,10.0,SSE,11.5,-,N/A,,Overcast,160,2012-12-08 05:53:00
11:53 PM,39.9,21.9,49,29.91,10.0,SSE,10.4,-,N/A,,Overcast,150,2012-12-08 06:53:00